Regional Weather Roundup
Issued by NWS

Home | Current Version | Previous Version | Graphics & Text | Print | Product List | Glossary Off
Versions: 1 2 3 4 5 6 7 8 9 10 11 12 13 14 15 16 17 18 19 20 21 22 23 24 25 26 27 28 29 30 31 32 33 34 35 36 37 38 39 40 41 42 43 44 45 46 47 48 49 50

000
ASUS43 KMKX 221621
RWRWI

WISCONSIN REGIONAL WEATHER ROUNDUP
NATIONAL WEATHER SERVICE MILWAUKEE/SULLIVAN WI
1100 AM CDT MON MAY 22 2017

NOTE: "FAIR" INDICATES FEW OR NO CLOUDS BELOW 12,000 FEET WITH NO
SIGNIFICANT WEATHER AND/OR OBSTRUCTIONS TO VISIBILITY.

WIZ001-002-006>008-014>016-023>028-221700-
NORTHWEST WISCONSIN

CITY           SKY/WX    TMP DP  RH WIND       PRES   REMARKS
SUPERIOR ARPT  NOT AVBL
ASHLAND        CLOUDY    53  43  68 SW14      29.77S
HAYWARD        CLOUDY    49  41  74 VRB7      29.80S
SIREN          CLOUDY    51  42  72 W8        29.82F
CUMBERLAND     CLOUDY    50  41  71 W15       29.82F
RICE LAKE      CLOUDY    54  43  65 W10       29.84S
CHETEK         CLOUDY    55  44  67 W7G16     29.83S
LADYSMITH      CLOUDY    53  44  71 SW10      29.83F
EAU CLAIRE     MOSUNNY   58  43  57 W13       29.83F
MENOMONIE      MOSUNNY   59  44  57 SW15      29.84F
NEW RICHMOND   SUNNY     57  42  57 W12G22    29.84S
OSCEOLA        PTSUNNY   57  44  61 W15G21    29.87R
$$

WIZ003>005-009-010-017-018-221700-
NORTH CENTRAL WISCONSIN

CITY           SKY/WX    TMP DP  RH WIND       PRES   REMARKS
MANITOWISH WTR CLOUDY    48  45  87 W10       29.78F
ARBOR VITAE    PTSUNNY   52  44  74 W14G21    29.79S
WOODRUFF       PTSUNNY   52  44  74 W14G21    29.79S
RHINELANDER    CLOUDY    53  42  66 SW14G21   29.82S
EAGLE RIVER    CLOUDY    49  41  73 W15G21    29.79S
LAND O LAKES   CLOUDY    49  42  79 W9        29.80S
PHILLIPS       CLOUDY    50  43  78 SW7       29.80S
TOMAHAWK       CLOUDY    51  41  68 W10G16    29.83S
MEDFORD        PTSUNNY   53  43  69 SW13G21   29.83F
MERRILL        CLOUDY    55  44  65 W18       29.83F
$$

WIZ029-030-035-036-043>047-221700-
CENTRAL WISCONSIN

CITY           SKY/WX    TMP DP  RH WIND       PRES   REMARKS
WAUSAU         PTSUNNY   55  42  61 W18G24    29.83F
MOSINEE        PTSUNNY   55  45  67 SW16      29.86F
MARSHFIELD     MOSUNNY   57  43  59 SW14      29.84F
STEVENS POINT  PTSUNNY   56  40  56 W12       29.87F
WAUPACA        MOSUNNY   63  42  47 SW15      29.88S
WAUTOMA        PTSUNNY   61  44  53 SW17G23   29.89F
WISC RAPIDS    SUNNY     61  43  51 W12       29.88F
CAMP DOUGLAS   MOSUNNY   61  45  55 SW10      29.88F
$$

WIZ011>013-019>022-031-037>040-048>050-221700-
NORTHEAST WISCONSIN

CITY           SKY/WX    TMP DP  RH WIND       PRES   REMARKS
ANTIGO         PTSUNNY   52  44  75 W15       29.85S
SHAWANO        PTSUNNY   59  43  55 W10G26    29.86F
OCONTO         CLOUDY    57  42  57 W15G25    29.85F
STURGEON BAY   CLOUDY    54  43  66 W18G28    29.86S
GREEN BAY      MOSUNNY   58  47  66 W14       29.88F
MANITOWOC      MOSUNNY   57  42  57 W13G24    29.90F
APPLETON       MOSUNNY   57  39  51 W14G23    29.87F
CLINTONVILLE   CLOUDY    57  41  54 SW13      29.86F
OSHKOSH        MOSUNNY   58  44  60 SW9       29.89F
$$

WIZ032>034-041-042-053>061-221700-
SOUTHWEST WISCONSIN

CITY           SKY/WX    TMP DP  RH WIND       PRES   REMARKS
LA CROSSE      SUNNY     63  47  55 SW9       29.88F
SPARTA         SUNNY     61  47  59 SW6       29.89S
VIROQUA        SUNNY     58  46  66 N14       29.90F
BOSCOBEL       LGT RAIN  54  48  80 SW7       29.94S
PRAIRIE DU CHI CLOUDY    52  47  83 S3        29.93F
PLATTEVILLE    PTSUNNY   58  50  74 W13G20    29.97F
$$

WIZ056-057-062-063-064-067-068-221700-
SOUTH CENTRAL WISCONSIN

CITY           SKY/WX    TMP DP  RH WIND       PRES   REMARKS
REEDSBURG      MOSUNNY   60  47  61 SW13      29.90F
BARABOO/DELLS  MOSUNNY   60  46  60 SW10G16   29.90F
LONE ROCK      CLOUDY    57  47  69 W7        29.94S
MINERAL POINT  LGT RAIN  54  50  87 SW12G17   29.96S
MADISON        PTSUNNY   59  45  59 VRB6G16   29.93F
MIDDLETON      PTSUNNY   63  47  56 SW13      29.93F
WATERTOWN      MOSUNNY   61  48  62 SW15G21   29.93F
MONROE         MOSUNNY   55  45  67 SW16      29.97R
JANESVILLE     PTSUNNY   63  46  55 SW13G20   29.97S
$$

WIZ051-052-058>065-066-070>072-221700-
SOUTHEAST WISCONSIN

CITY           SKY/WX    TMP DP  RH WIND       PRES   REMARKS
MILWAUKEE      MOSUNNY   62  44  51 W17G25    29.96F
WAUKESHA       SUNNY     57  43  58 SW14G22   29.96F
MILWAUKEE/TIMM SUNNY     61  41  48 SW17      29.95F
RACINE         SUNNY     63  43  48 SW14      29.97F
KENOSHA        SUNNY     62  46  55 W12G26    29.97F
FOND DU LAC    SUNNY     60  43  53 W12G22    29.90F
SHEBOYGAN      SUNNY     60  45  57 W12       29.90F
WEST BEND      SUNNY     59  45  58 W13G18    29.92F
JUNEAU         MOSUNNY   58  46  63 SW14      29.94S
$$

LSZ147-162-221700-
LAKE SUPERIOR

STATION/POSITION TIME  TEMP    WIND        PRES    WAVE
                       AIR SEA DIR/SP/G            HT/PER
                 (UTC) (F)     (DEG/KT/KT) (MB)    (FT/S)
W MID LAKE BUOY  1550   40 37  230/ 12/ 12 1007.3S   2/ 5
DEVILS ISLAND    1600   45     230/ 19/ 21 1007.5R
SAXON HARBOR     1530   53     220/  8/ 14 1007.8F
$$

LMZ867-665-643>646-221700-
LAKE MICHIGAN

STATION/POSITION TIME  TEMP    WIND        PRES    WAVE
                       AIR SEA DIR/SP/G            HT/PER
                 (UTC) (F)     (DEG/KT/KT) (MB)    (FT/S)
CHAMBERS ISLAND  1540   53     210/  6/ 14 1010.2R
N MID LAKE BUOY  1550   42 39  210/ 12/ 14 1011.2R   2/ 5
NORTHPORT PIER   1540   54     240/  5/ 14 1010.2S
KEWAUNEE LAKESHO 1554   55     260/ 13/ 21 1011.4F
SHEBOYGAN LAKESH 1500   55     270/ 13/ 15 1013.1F
PORT WASHINGTON  1530   61     250/ 10/ 18 1014.2F
ATWATER BUOY     1509   55     240/ 10/ 12 1014.0F
MILWAUKEE LAKESH 1600   59     250/ 16/ 22   N/A
S MID LAKE BUOY  1550   47 44  220/ 12/ 14 1015.9F   2/ 4
KENOSHA   LAKESH 1600   60     240/ 13/ 20 1014.9
$$

TC  - TEMPERATURE IN CELSIUS
VSB - VISIBILITY IN STATUTE MILES
WCI - WIND CHILL INDEX
HX  - HEAT INDEX





USA.gov is the U.S. government's official web portal to all federal, state and local government web resources and services.